COSMOS 2251 DEB, 40238

Orbit data source: Space-Track

COSMOS 2251 DEB, 40238 is space debris in LEO originally from a launch on Wed, 16 Jun 1993 UTC launched from the Plesetsk Missile And Space Complex (PKMTR). The debris from Iridium 33, an American commercial communications satellite, has been tracked extensively since its accidental collision with the defunct Russian satellite Cosmos 2251 in 2009. This event, occurring at high speed in low Earth orbit (LEO), generated thousands of pieces of space debris, significantly increasing the risk of further collisions. The Iridium 33 debris cloud has impacted space traffic management and orbital debris mitigation strategies, making it a subject of ongoing study in space situational awareness.

Loading next visibility...
Identifier
40238, 1993-036BVT
Orbit
LEO
Country
Flag of CISCIS
Related business
Manufacturer
Unknown
Mission
Spacecraft
Bus & Motor
Unknown
Mass
Unknown
Launch date (UTC)
1993-06-16 (33 years ago)
Launch vehicle
Unknown
Launch site
Plesetsk Missile And Space Complex (PKMTR)
Object type
Payload
Rocket body
Debris
Shape & HBR
Unknown shape, 0.1 m
Radar Cross Section
Small (<0.1 m²)

Expand to show TLE details & history
Last TLE update: 2 weeks ago

TLE from 2 weeks ago
0 COSMOS 2251 DEB
1 40238U 93036BVT 26026.16912731  .00004258  00000-0  42918-2 0  9999
2 40238  73.9955 355.3573 0553467 318.6078  37.4289 13.25358540546252
Epoch: 2026-01-26T04:03Z
TLE epoch observation values (Epoch: 2026-01-26T04:03:32.599Z)
Latitude
-0.00006°
Longitude
169.00271°
Altitude
844.391 km
Speed
7.588 km/s
True Right ascension
23h 41m 25s
True Declination
0° 00' 00"
Sunlit
Object was in daylight at epoch
Visualization orbit readout
Latitude
Unknown
Longitude
Unknown
Altitude
Unknown
Speed
Unknown
Apparent Right ascension
Unknown
Apparent Declination
Unknown
Sunlit
N/A
Visualization observer readout
Local Sidereal Time
07:57:24
Azimuth
Unknown
Elevation
Unknown
Doppler factor
Unknown
Orbital elements
Apogee altitude
1,579.387 km
Perigee altitude
744.737 km
Semi-major axis
7,540.199 km
Eccentricity
0.05535
Inclination
73.9955°
RAAN
355.3573°
Arg. of periapsis
318.6078°
True anomaly
41.50364°
Mean anomaly
37.4289°
Eccentric anomaly
39.44358°
Mean motion
3.31489 °/min
Orbital period
108.6 mins
BSTAR
0.0042918
Loading maneuver chart data...
Computing Atmospheric mass density...

Documentation

Showing up to 5 results
|